Flag for Kazakhstan Weather past 2 weeks in Shymkent, Kazakhstan

Now
61 °F

Clear.


Feels Like: 61 °F
Forecast: 45 / 74 °F
Wind: 3 mph from Northeast

Location: Shymkent Airport

Current Time: Apr 27, 2015 at 9:44:45 PM

Latest Report: Apr 27, 2015 at 9:00 PM


Visibility: 10 mi

Pressure: 30.33 "Hg

Humidity: 55%

Dew point: 45 °F

Location of ShymkentLocation

Historic Weather in Shymkent — Graph

°F

Shymkent temperature yesterday

Maximum temperature yesterday: 81 °F (at 12:00 AM)
Minimum temperature yesterday: 48 °F (at 12:30 PM)
Average temperature yesterday: 57 °F

Past Weeks' High & Low Weather Summary

 TemperatureHumidityPressure
High93 °F (Apr 23, 3:00 PM)100% (Apr 15, 4:00 AM)30.36 "Hg (Apr 15, 4:00 AM)
Low45 °F (Apr 18, 4:00 AM)10% (Apr 23, 1:00 PM)29.59 "Hg (Apr 26, 2:00 AM)
Average65 °F55%29.99 "Hg
* Reported Apr 12 8:00 PM — Apr 27 8:30 PM, Shymkent, Weather by CustomWeather, © 2015

Note: Actual official high and low records may vary slightly from our data, if they occured in-between our weather recording intervals... More about our weather records

Advertising

Shymkent weather history for previous 24 hours

 ConditionsComfort  
Time TempWeatherWind HumidityBarometerVisibility
8:30 PM
Mon, Apr 27
63 °FClear.No wind49%30.33 "Hg10 mi
8:00 PM64 °FSunny.No wind46%30.33 "Hg10 mi
7:30 PM66 °FSunny.1 mph43%30.33 "Hg10 mi
7:00 PM68 °FSunny.1 mph40%30.33 "Hg10 mi
6:30 PM68 °FPassing clouds.3 mph38%30.33 "HgN/A
6:00 PM68 °FSunny.1 mph38%30.33 "Hg10 mi
5:30 PM68 °FSunny.1 mph43%30.33 "Hg10 mi
5:00 PM68 °FPassing clouds.6 mph43%30.33 "HgN/A
4:30 PM68 °FSunny.8 mph40%30.33 "Hg10 mi
4:00 PM68 °FPassing clouds.8 mph43%30.33 "HgN/A
3:30 PM68 °FPassing clouds.8 mph46%30.33 "HgN/A
3:00 PM66 °FSunny.13 mph46%30.36 "Hg10 mi
2:30 PM68 °FSunny.13 mph49%30.36 "Hg10 mi
2:00 PM66 °FSunny.13 mph49%30.36 "Hg10 mi
1:30 PM68 °FSunny.13 mph46%30.36 "Hg10 mi
1:00 PM64 °FSunny.15 mph56%30.36 "Hg10 mi
12:30 PM66 °FSunny.13 mph49%30.36 "Hg10 mi
12:00 PM66 °FSunny.13 mph49%30.36 "Hg10 mi
11:30 AM66 °FSunny.15 mph49%30.36 "Hg10 mi
11:00 AM64 °FSunny.6 mph49%30.36 "Hg10 mi
10:30 AM63 °FSunny.6 mph52%30.36 "Hg10 mi
10:00 AM61 °FSunny.6 mph55%30.36 "Hg10 mi
9:30 AM59 °FSunny.6 mph59%30.36 "Hg10 mi
9:00 AM57 °FSunny.6 mph67%30.36 "Hg10 mi
8:30 AM55 °FSunny.8 mph67%30.36 "Hg10 mi
8:00 AM54 °FSunny.15 mph72%30.36 "Hg10 mi
7:30 AM50 °FPartly sunny.8 mph82%30.36 "HgN/A
7:00 AM50 °FSunny.13 mph76%30.36 "Hg10 mi
6:30 AM50 °FSunny.6 mph82%30.33 "Hg10 mi
6:00 AM50 °FClear.6 mph76%30.33 "Hg10 mi
5:30 AM50 °FOvercast.10 mph82%30.33 "HgN/A
5:00 AM48 °FOvercast.10 mph87%30.33 "HgN/A
4:30 AM50 °FOvercast.10 mph82%30.33 "HgN/A
4:00 AM48 °FOvercast.10 mph87%30.33 "HgN/A
3:30 AM48 °FOvercast.10 mph87%30.36 "HgN/A
3:00 AM50 °FOvercast.10 mph82%30.36 "HgN/A
2:30 AM50 °FMostly cloudy.6 mph88%30.36 "HgN/A
2:00 AM50 °FOvercast.10 mph88%30.36 "HgN/A
1:30 AM50 °FOvercast.15 mph88%30.36 "HgN/A
1:00 AM52 °FOvercast.15 mph88%30.36 "HgN/A
12:30 AM52 °FOvercast.17 mph88%30.33 "HgN/A
12:00 AM52 °FOvercast.17 mph82%30.33 "HgN/A
11:30 PM
Sun, Apr 26
52 °FOvercast.17 mph82%30.30 "HgN/A
11:00 PM52 °FSprinkles. Overcast.20 mph82%30.30 "HgN/A
10:30 PM54 °FOvercast.15 mph77%30.30 "HgN/A
10:00 PM55 °FOvercast.15 mph67%30.27 "HgN/A
9:30 PM54 °FOvercast.10 mph77%30.24 "HgN/A
9:00 PM55 °FOvercast.13 mph67%30.21 "HgN/A
Weather by CustomWeather, © 2015

See weather overviewHow to use our weather pages